User: anonymous   Login
Location: Hepcat Sky Observatory
(29.9800°N, 95.6500°W)
Time: 07:22:01
(UTC-06:00)
Language:

Cosmos 2151 Rocket - Orbit

View from above orbital plane
View from above orbital plane
View from above satellite
View from above satellite

Ground track
Ground track

The orbit data is extracted from the following two-line orbital elements,

1 21423U 91042B   17023.21158556  .00000088  00000-0  86266-5 0  9993
2 21423  82.4942  96.9035 0017815  10.4693 349.6887 14.79674814381143
Epoch (UTC): 23 January 2017 05:04:40
Eccentricity: 0.0017815
inclination: 82.4942°
perigee height: 618 km
apogee height: 643 km
right ascension of ascending node: 96.9035°
argument of perigee: 10.4693°
revolutions per day: 14.79674814
mean anomaly at epoch: 349.6887°
orbit number at epoch: 38114

The dashed part of the orbit path shows where the satellite is in the earth's shadow,  

DLR